Weather History for Estherville, IA

Change the Weather History Date:

Thursday, September 1, 2011

  Actual Average Record
Temperature  
Mean Temperature 81 °F 66 °F  
Max Temperature 91 °F 78 °F 97 °F (1953)
Min Temperature 70 °F 55 °F 37 °F (1949)
Degree Days  
Heating Degree Days 0 2  
Month to date heating degree days 0 2  
Since 1 July heating degree days 2 34  
Cooling Degree Days 16 3  
Month to date cooling degree days 16 3  
Year to date cooling degree days 716 543  
Growing Degree Days 30 (Base 50)    
Moisture  
Dew Point 70 °F    
Average Humidity 74    
Maximum Humidity 100    
Minimum Humidity 47    
Precipitation  
Precipitation 0.00 in 0.10 in 0.79 in (1979)
Month to date precipitation 0.00 0.10  
Year to date precipitation 18.18  
Sea Level Pressure  
Sea Level Pressure 29.75 in    
Wind  
Wind Speed 9 mph (South)    
Max Wind Speed 17 mph    
Max Gust Speed 22 mph    
Visibility 6 miles    
Events      
T = Trace of Precipitation, MM = Missing Value Source: NWS Daily Summary

Daily Weather History Graph

Daily Weather History Graph

Search for Another Location

Airport:

Trip Planner

Search our weather history database for the weather conditions in past years. The results will help you decide how hot, cold, wet, or windy it might be!

Date:

Astronomy

Sep. 01, 2011 Rise Set
Actual Time 6:42 AM CDT 7:54 PM CDT
Civil Twilight 6:13 AM CDT 8:23 PM CDT
Nautical Twilight 5:37 AM CDT 8:59 PM CDT
Astronomical Twilight 5:00 AM CDT 9:36 PM CDT
Moon 11:14 AM CDT (9/1) 9:34 PM CDT (9/1)
Length of Visible Light 14h 10m
Length of Day
13h 11m
Waxing Crescent, 18% of the Moon is Illuminated
Sep 1
Waxing Crescent
Sep 4
First Quarter
Sep 12
Full
Sep 20
Last Quarter
Sep 27
New

Hourly Weather History & Observations

Time (CDT) Temp. Heat Index Dew Point Humidity Pressure Visibility Wind Dir Wind Speed Gust Speed Precip Events Conditions
12:52 AM 72.0 °F - 71.1 °F 97% 29.84 in 4.0 mi SSE 8.1 mph - N/A   Clear
1:52 AM 73.0 °F - 71.1 °F 93% 29.82 in 4.0 mi SSE 9.2 mph - N/A   Clear
2:52 AM 72.0 °F - 71.1 °F 97% 29.81 in 3.0 mi SSE 9.2 mph - N/A   Clear
3:29 AM 71.6 °F - 69.8 °F 94% 29.83 in 2.5 mi SSE 8.1 mph - N/A   Clear
3:52 AM 70.0 °F - 70.0 °F 100% 29.80 in 2.0 mi SSE 5.8 mph - N/A   Clear
4:06 AM 69.8 °F - 69.8 °F 100% 29.82 in 1.8 mi SSE 5.8 mph - 0.01 in   Clear
4:52 AM 70.0 °F - 69.1 °F 97% 29.78 in 2.0 mi SSE 6.9 mph - 0.01 in   Clear
5:52 AM 70.0 °F - 69.1 °F 97% 29.77 in 2.5 mi SSE 6.9 mph - N/A   Clear
6:52 AM 71.1 °F - 70.0 °F 96% 29.76 in 2.0 mi SSE 6.9 mph - N/A   Clear
7:41 AM 71.6 °F - 69.8 °F 94% 29.78 in 2.0 mi SSE 8.1 mph - N/A   Clear
7:52 AM 72.0 °F - 70.0 °F 93% 29.75 in 2.0 mi SSE 10.4 mph - N/A   Clear
8:08 AM 73.4 °F - 71.6 °F 94% 29.77 in 3.0 mi South 10.4 mph - N/A   Clear
9:52 AM 78.1 °F - 71.1 °F 79% 29.73 in 7.0 mi South 15.0 mph 21.9 mph N/A   Clear
10:52 AM 82.9 °F 87.0 °F 70.0 °F 65% 29.73 in 10.0 mi South 13.8 mph - N/A   Clear
11:52 AM 86.0 °F 90.1 °F 69.1 °F 57% 29.73 in 10.0 mi SSW 10.4 mph - N/A   Clear
12:52 PM 88.0 °F 91.4 °F 68.0 °F 51% 29.73 in 10.0 mi SW 9.2 mph - N/A   Clear
2:52 PM 90.0 °F 94.5 °F 69.1 °F 50% 29.68 in 10.0 mi South 13.8 mph - N/A   Partly Cloudy
3:52 PM 90.0 °F 95.4 °F 70.0 °F 52% 29.68 in 10.0 mi South 11.5 mph - N/A   Clear
4:52 PM 90.0 °F 94.5 °F 69.1 °F 50% 29.68 in 10.0 mi SSW 13.8 mph - N/A   Clear
5:52 PM 88.0 °F 93.8 °F 71.1 °F 57% 29.70 in 10.0 mi SW 9.2 mph - N/A   Clear
6:52 PM 84.0 °F 89.0 °F 71.1 °F 65% 29.71 in 10.0 mi SW 6.9 mph - N/A   Clear
7:52 PM 80.1 °F 83.8 °F 72.0 °F 76% 29.71 in 10.0 mi SSW 5.8 mph - N/A   Clear
8:52 PM 77.0 °F - 71.1 °F 82% 29.73 in 10.0 mi SSW 6.9 mph - N/A   Clear
9:52 PM 75.9 °F - 71.1 °F 85% 29.74 in 10.0 mi SSW 6.9 mph - N/A   Clear
10:52 PM 73.0 °F - 70.0 °F 90% 29.74 in 9.0 mi South 4.6 mph - N/A   Clear
11:52 PM 71.1 °F - 69.1 °F 93% 29.74 in 8.0 mi South 4.6 mph - N/A   Clear